Regional Weather Roundup
Issued by NWS

Home | Current Version | Previous Version | Text Only | Print | Product List | Glossary Off
Versions: 1 2 3 4 5 6 7 8 9 10 11 12 13 14 15 16 17 18 19 20 21 22 23 24 25 26 27

000
ASUS45 KBOU 191307
RWRCO

WEATHER ROUNDUP FOR COLORADO
NATIONAL WEATHER SERVICE DENVER/BOULDER CO
700 AM MDT THU OCT 19 2017

NOTE: "FAIR" INDICATES FEW OR NO CLOUDS BELOW 12000 FEET WITH NO
SIGNIFICANT WEATHER AND/OR OBSTRUCTIONS TO VISIBILITY.

COZ001>005-013-030-031-191400-
...NORTHWEST COLORADO...

CITY           SKY/WX    TMP DP  RH WIND       PRES   REMARKS
CRAIG          FAIR      23  18  81 W5        30.16S WCI  17
HAYDEN         FAIR      35  16  45 E15       30.17F WCI  25
MEEKER         FAIR      32  20  61 CALM      30.16S
RABBIT EARS PA FAIR      41   5  22 SE7       30.35S
STEAMBOAT SPGS FAIR      30  16  55 CALM      30.19F
WALDEN         NOT AVBL
$$

COZ006>008-011-191400-
...WEST CENTRAL VALLEYS...

CITY           SKY/WX    TMP DP  RH WIND       PRES   REMARKS
GRAND JUNCTION FAIR      40  18  41 CALM      30.09S
MONTROSE       FAIR      38  21  50 S6        30.16S
EAGLE          FAIR      28  18  66 E5        30.27F WCI  23
RIFLE          FAIR      37  20  50 CALM      30.15F
DELTA          FAIR      40  17  38 CALM      30.14S
NUCLA          FAIR      41  18  38 CALM      30.19S
$$

COZ017>023-064>068-191400-
...SOUTHWEST COLORADO...

CITY           SKY/WX    TMP DP  RH WIND       PRES   REMARKS
DURANGO        FAIR      36  22  56 CALM      30.20S
CORTEZ         FAIR      41  30  65 NE6       30.15S
PAGOSA SPRINGS FAIR      36  19  49 CALM      30.26S
TELLURIDE      NOT AVBL
WOLF CREEK PAS FAIR      37  10  32 SW6       30.50F
$$

COZ009-010-012-014-032>034-037-058>063-191400-
...CENTRAL COLORADO...

CITY           SKY/WX    TMP DP  RH WIND       PRES   REMARKS
ASPEN          FAIR      30  19  63 S3        30.22S
BUENA VISTA    FAIR      32  15  50 N3        30.28S
COPPER MTN     FAIR      45   3  18 S13       30.44F
BERTHOUD PASS  FAIR      34  27  75 W16       30.46S WCI  23
COTTONWOOD PAS FAIR      50   0  12 CALM      30.35S
GUNNISON       FAIR      24  13  62 CALM      30.32S
KREMMLING      FAIR      23  19  86 CALM      30.30F
LEADVILLE      FAIR      29   8  41 NE7       30.34F WCI  22
SALIDA         NOT AVBL
SUNLIGHT       FAIR      37   9  30 S10       30.39F
WILKERSON PASS FAIR      39  -2  17 SW10      30.43F
$$

COZ069>075-191400-
...SAN LUIS VALLEY/SANGRE DE CRISTO MOUNTAINS...

CITY           SKY/WX    TMP DP  RH WIND       PRES   REMARKS
ALAMOSA        FAIR      22  16  78 CALM      30.27S
DEL NORTE      FAIR      38  15  38 W16       30.28S
LA VETA PASS   FAIR      43  14  31 SW14      30.47F
SAGUACHE       FAIR      34  14  44 N13       30.28F WCI  25
$$

COZ035-036-038>040-191400-
...NORTHERN COLORADO FRONT RANGE...

CITY           SKY/WX    TMP DP  RH WIND       PRES   REMARKS
DENVER INTL AP FAIR      44  22  41 W6        30.08S
DMNS CITY PARK   N/A     39  27  62 E7        30.08S
AURORA         PTCLDY    48  25  40 CALM      30.09S
FRONT RANGE AP FAIR      45  27  49 SW6       30.09S
ERIE MUNI ARPT FAIR      33  28  81 CALM      30.13F
BOULDER MUN AP FAIR      41  27  56 W3        30.07F
CENTENNIAL     FAIR      46  22  38 S7        30.09F
BROOMFIELD     MOCLDY    48  19  32 NW7       30.08F
FORT COLLINS   FAIR      41  31  67 CALM      30.08F
LONGMONT       FAIR      35  26  68 W6        30.09F WCI  30
$$

COZ041-046-047-076>085-087-088-191400-
...PIKES PEAK/PALMER DIVIDE AND SOUTHERN FOOTHILLS...

CITY           SKY/WX    TMP DP  RH WIND       PRES   REMARKS
COLO. SPRINGS  FAIR      40  26  57 NE8       30.15F
A. F. ACADEMY  CLEAR     33  22  63 N10       30.15S WCI  25
SCHRIEVER AFB  FAIR      45  23  42 N6        30.15S
CHEYENNE MTN   NOT AVBL
ELLICOTT       FAIR     N/A N/A N/A SE3       30.13S
FALCON         FAIR      42  22  45 NW5       30.18S
FORT CARSON    FAIR      41  24  51 N7        30.12S
LIMON          FAIR      29  27  92 N7        30.11F WCI  22
MONUMENT HILL  FAIR      43  19  39 SW9       30.17F
CANON CITY     CLEAR     54  18  24 W16       30.11F
WALSENBURG     FAIR      45  21  39 W12       30.15S
TRINIDAD       FAIR      41  25  53 W9        30.14F
$$

COZ042>045-048>051-090-091-191400-
...NORTHEAST COLORADO...

CITY           SKY/WX    TMP DP  RH WIND       PRES   REMARKS
GREELEY ARPT   FAIR      31  27  85 NW8       30.07F WCI  23
AKRON          FAIR      45  30  55 SW12      30.06F
BURLINGTON     FAIR      39  32  76 SW6       30.08F
WRAY           FAIR      32  30  93 W7        30.07F WCI  26
YUMA           FAIR      34  30  86 W6        30.07S WCI  29
STERLING       FAIR      32  28  86 SW3       30.04F
HOLYOKE        FAIR      36  32  87 SW3       30.06F
FORT MORGAN    FAIR      38  26  62 CALM      30.07S
$$

COZ086-089-092>099-191400-
...SOUTHEAST COLORADO...

CITY           SKY/WX    TMP DP  RH WIND       PRES   REMARKS
PUEBLO         FAIR      34  26  72 W5        30.10S WCI  30
LA JUNTA       FAIR      39  30  70 SW6       30.09S
LAMAR          LGT SNOW  32  28  85 SW6       30.07S FOG     WCI  26
SPRINGFIELD      N/A     42  39  89 W9        30.08S
$$




USA.gov is the U.S. government's official web portal to all federal, state and local government web resources and services.